Weather History for KDBN - November, 2011

Change the Weather History Date:

Thursday, November 3, 2011

  Actual Average Record
Temperature  
Mean Temperature 58 °F -  
Max Temperature 77 °F 75 °F 90 °F (1961)
Min Temperature 39 °F 47 °F 21 °F (1954)
Degree Days  
Heating Degree Days 7    
Growing Degree Days 8 (Base 50)    
Moisture  
Dew Point 45 °F    
Average Humidity 78    
Maximum Humidity 100    
Minimum Humidity 41    
Precipitation  
Precipitation 0.00 in - - ()
Sea Level Pressure  
Sea Level Pressure 30.16 in    
Wind  
Wind Speed 2 mph (South)    
Max Wind Speed 16 mph    
Max Gust Speed 22 mph    
Visibility 10 miles    
Events      
Averages and records for this station are not official NWS values.
T = Trace of Precipitation, MM = Missing Value Source: NWS Daily Summary

Daily Weather History Graph

Daily Weather History Graph

Search for Another Location

Airport or City:

Trip Planner

Search our weather history database for the weather conditions in past years. The results will help you decide how hot, cold, wet, or windy it might be!

Date:

Astronomy

Nov. 03, 2011 Rise Set
Actual Time 7:50 AM EDT 6:39 PM EDT
Civil Twilight 7:25 AM EDT 7:05 PM EDT
Nautical Twilight 6:56 AM EDT 7:34 PM EDT
Astronomical Twilight 6:27 AM EDT 8:03 PM EDT
Moon 2:42 PM EDT 1:24 AM EDT
Length of Visible Light 11h 39m
Length of Day
10h 48m
First Quarter, 60% of the Moon is Illuminated
Nov 3
First Quarter
Nov 10
Full
Nov 18
Last Quarter
Nov 25
New
Dec 2
First Quarter

Hourly Weather History & Observations

Time (EDT) Temp. Windchill Dew Point Humidity Pressure Visibility Wind Dir Wind Speed Gust Speed Precip Events Conditions
12:15 AM 42.8 °F - 41.0 °F 93% 30.28 in 10.0 mi Calm Calm - N/A   Clear
12:35 AM 42.8 °F - 41.0 °F 93% 30.28 in 10.0 mi Calm Calm - N/A   Clear
12:55 AM 41.0 °F - 41.0 °F 100% 30.28 in 10.0 mi Calm Calm - N/A   Clear
1:15 AM 41.0 °F - 41.0 °F 100% 30.27 in 7.0 mi Calm Calm - N/A   Clear
1:35 AM 41.0 °F - 41.0 °F 100% 30.27 in 10.0 mi Calm Calm - N/A   Clear
1:55 AM 41.0 °F - 41.0 °F 100% 30.27 in 10.0 mi Calm Calm - N/A   Clear
2:15 AM 41.0 °F - 41.0 °F 100% 30.26 in 10.0 mi Calm Calm - N/A   Clear
2:35 AM 41.0 °F - 41.0 °F 100% 30.25 in 10.0 mi Calm Calm - N/A   Clear
2:55 AM 39.2 °F - 39.2 °F 100% 30.24 in 10.0 mi Calm Calm - N/A   Clear
3:15 AM 41.0 °F - 41.0 °F 100% 30.24 in 10.0 mi Calm Calm - N/A   Clear
3:35 AM 39.2 °F - 39.2 °F 100% 30.24 in 10.0 mi Calm Calm - N/A   Clear
3:55 AM 41.0 °F - 41.0 °F 100% 30.23 in 10.0 mi Calm Calm - N/A   Clear
4:15 AM 39.2 °F - 39.2 °F 100% 30.22 in 7.0 mi Calm Calm - N/A   Clear
4:35 AM 41.0 °F - 41.0 °F 100% 30.22 in 10.0 mi Calm Calm - N/A   Clear
4:55 AM 39.2 °F - 39.2 °F 100% 30.22 in 7.0 mi Calm Calm - N/A   Clear
5:15 AM 39.2 °F - 37.4 °F 93% 30.22 in 10.0 mi Calm Calm - N/A   Clear
5:55 AM 39.2 °F - 39.2 °F 100% 30.22 in 10.0 mi Calm Calm - N/A   Clear
6:15 AM 39.2 °F - 37.4 °F 93% 30.22 in 10.0 mi Calm Calm - N/A   Scattered Clouds
6:35 AM 39.2 °F - 37.4 °F 93% 30.21 in 10.0 mi Calm Calm - N/A   Scattered Clouds
6:55 AM 39.2 °F - 39.2 °F 100% 30.22 in 10.0 mi Calm Calm - N/A   Clear
7:15 AM 41.0 °F - 39.2 °F 93% 30.21 in 10.0 mi Calm Calm - N/A   Clear
7:35 AM 39.2 °F - 39.2 °F 100% 30.21 in 7.0 mi Calm Calm - N/A   Clear
7:55 AM 39.2 °F - 37.4 °F 93% 30.22 in 7.0 mi Calm Calm - N/A   Scattered Clouds
8:15 AM 41.0 °F - 39.2 °F 93% 30.22 in 10.0 mi Calm Calm - N/A   Mostly Cloudy
8:35 AM 41.0 °F - 41.0 °F 100% 30.22 in 10.0 mi Calm Calm - N/A   Mostly Cloudy
8:55 AM 44.6 °F - 42.8 °F 93% 30.22 in 10.0 mi Calm Calm - N/A   Overcast
9:15 AM 46.4 °F 45.2 °F 44.6 °F 93% 30.22 in 10.0 mi NE 3.5 mph - N/A   Overcast
9:35 AM 50.0 °F - 44.6 °F 82% 30.22 in 10.0 mi Calm Calm - N/A   Overcast
9:55 AM 51.8 °F - 44.6 °F 76% 30.21 in 10.0 mi Calm Calm - N/A   Overcast
10:35 AM 55.4 °F - 46.4 °F 72% 30.18 in 10.0 mi SE 3.5 mph - N/A   Scattered Clouds
10:55 AM 60.8 °F - 50.0 °F 68% 30.18 in 10.0 mi SSE 6.9 mph - N/A   Clear
11:15 AM 62.6 °F - 51.8 °F 68% 30.18 in 10.0 mi SSE 4.6 mph - N/A   Clear
11:35 AM 64.4 °F - 53.6 °F 68% 30.17 in 10.0 mi SSE 6.9 mph - N/A   Clear
11:55 AM 66.2 °F - 51.8 °F 60% 30.16 in 10.0 mi South 8.1 mph - N/A   Clear
12:15 PM 69.8 °F - 53.6 °F 56% 30.14 in 10.0 mi South 10.4 mph - N/A   Clear
12:35 PM 71.6 °F - 53.6 °F 53% 30.12 in 10.0 mi South 10.4 mph 16.1 mph N/A   Clear
12:55 PM 73.4 °F - 55.4 °F 53% 30.10 in 10.0 mi South 12.7 mph 17.3 mph N/A   Clear
1:15 PM 73.4 °F - 55.4 °F 53% 30.09 in 10.0 mi South 10.4 mph - N/A   Clear
1:35 PM 75.2 °F - 53.6 °F 47% 30.07 in 10.0 mi SSW 10.4 mph 17.3 mph N/A   Scattered Clouds
1:55 PM 73.4 °F - 53.6 °F 50% 30.05 in 10.0 mi SSW 8.1 mph 16.1 mph N/A   Mostly Cloudy
2:15 PM 75.2 °F - 53.6 °F 47% 30.03 in 10.0 mi South 10.4 mph 19.6 mph N/A   Scattered Clouds
2:35 PM 77.0 °F - 53.6 °F 44% 30.02 in 10.0 mi South 15.0 mph 18.4 mph N/A   Mostly Cloudy
2:55 PM 77.0 °F - 51.8 °F 41% 30.00 in 10.0 mi South 16.1 mph 20.7 mph N/A   Scattered Clouds
3:15 PM 77.0 °F - 51.8 °F 41% 29.99 in 10.0 mi SSW 10.4 mph 20.7 mph N/A   Scattered Clouds
3:35 PM 73.4 °F - 51.8 °F 47% 29.99 in 10.0 mi SSW 9.2 mph 19.6 mph N/A   Mostly Cloudy
3:55 PM 73.4 °F - 51.8 °F 47% 29.98 in 10.0 mi SSW 11.5 mph - N/A   Mostly Cloudy
4:15 PM 75.2 °F - 51.8 °F 44% 29.96 in 10.0 mi SSW 10.4 mph - N/A   Mostly Cloudy
4:35 PM 75.2 °F - 51.8 °F 44% 29.95 in 10.0 mi SSW 8.1 mph 18.4 mph N/A   Scattered Clouds
4:55 PM 77.0 °F - 51.8 °F 41% 29.93 in 10.0 mi SSW 11.5 mph 19.6 mph N/A   Clear
5:15 PM 75.2 °F - 51.8 °F 44% 29.93 in 10.0 mi SSW 11.5 mph 21.9 mph N/A   Clear
5:35 PM 75.2 °F - 51.8 °F 44% 29.91 in 10.0 mi South 13.8 mph 17.3 mph N/A   Clear
5:55 PM 73.4 °F - 51.8 °F 47% 29.91 in 10.0 mi SSW 12.7 mph - N/A   Clear
6:15 PM 73.4 °F - 51.8 °F 47% 29.90 in 10.0 mi South 9.2 mph - N/A   Clear
6:35 PM 71.6 °F - 51.8 °F 50% 29.88 in 10.0 mi South 10.4 mph - N/A   Clear
7:35 PM 69.8 °F - 53.6 °F 56% 29.87 in 10.0 mi South 9.2 mph - N/A   Overcast
7:55 PM 69.8 °F - 53.6 °F 56% 29.86 in 10.0 mi South 9.2 mph - N/A   Overcast
8:15 PM 69.8 °F - 53.6 °F 56% 29.86 in 10.0 mi South 10.4 mph 16.1 mph N/A   Overcast
8:35 PM 69.8 °F - 53.6 °F 56% 29.85 in 10.0 mi South 11.5 mph - N/A   Overcast
8:55 PM 69.8 °F - 53.6 °F 56% 29.84 in 10.0 mi South 15.0 mph - N/A   Overcast
9:15 PM 69.8 °F - 53.6 °F 56% 29.83 in 10.0 mi South 13.8 mph 20.7 mph N/A   Overcast
9:35 PM 69.8 °F - 53.6 °F 56% 29.83 in 10.0 mi SSW 13.8 mph 20.7 mph N/A   Overcast
9:55 PM 69.8 °F - 55.4 °F 60% 29.84 in 10.0 mi SSW 10.4 mph 18.4 mph N/A   Overcast
10:15 PM 68.0 °F - 57.2 °F 68% 29.87 in 7.0 mi West 13.8 mph 19.6 mph N/A Rain Rain
10:35 PM 62.6 °F - 60.8 °F 94% 29.87 in 5.0 mi West 4.6 mph - N/A Rain Rain
10:55 PM 62.6 °F - 62.6 °F 100% 29.88 in 4.0 mi West 17.3 mph 26.5 mph N/A Rain Rain
11:15 PM 60.8 °F - 59.0 °F 94% 29.88 in 5.0 mi WNW 9.2 mph - N/A Rain Rain
11:35 PM 60.8 °F - 59.0 °F 94% 29.88 in 10.0 mi West 9.2 mph - N/A Rain Light Rain
11:55 PM 59.0 °F - 57.2 °F 94% 29.88 in 10.0 mi WNW 10.4 mph 17.3 mph N/A Rain Light Rain